When you browse on this site, cookies collect data to enhance your experience and personalize the content and advertising you see.
Visit our Privacy Policy to learn more. By continuing to use the site, you agree to this use of cookies and data.
  • In Österreich
  • Länderverzeichnis
  • Für 7 Tage
  • Wassertemperatur
  • Satellitenkarten
  • Wetterkarte
  • News
  • Widgets
  • user-avatar
    Anmelden

    Stündliche Wetter Wlora

    Heute, 20 Juli, Samstag

    Zeit Temperatur Niederschläge Wind Luftdruck Luftfeuchtigkeit
    00:00 +24°C° 0 mm 3 m/S 762 mmHg 68%
    01:00 +24°C° 0 mm 3 m/S 762 mmHg 68%
    02:00 +24°C° 0 mm 3 m/S 762 mmHg 68%
    03:00 +24°C° 0 mm 3 m/S 762 mmHg 68%
    04:00 +24°C° 0 mm 3 m/S 762 mmHg 68%
    05:00 +25°C° 0 mm 3 m/S 762 mmHg 64%
    06:00 +26°C° 0 mm 3 m/S 762 mmHg 60%
    07:00 +27°C° 0 mm 3 m/S 762 mmHg 57%
    08:00 +28°C° 0 mm 4 m/S 763 mmHg 53%
    09:00 +30°C° 0 mm 4 m/S 763 mmHg 50%
    10:00 +32°C° 0 mm 4 m/S 763 mmHg 47%
    11:00 +32°C° 0 mm 4 m/S 763 mmHg 47%
    12:00 +32°C° 0 mm 5 m/S 763 mmHg 48%
    13:00 +32°C° 0 mm 5 m/S 763 mmHg 49%
    14:00 +32°C° 0 mm 5 m/S 763 mmHg 51%
    15:00 +30°C° 0 mm 5 m/S 763 mmHg 53%
    16:00 +30°C° 0 mm 5 m/S 763 mmHg 55%
    17:00 +29°C° 0 mm 5 m/S 763 mmHg 58%
    18:00 +28°C° 0 mm 5 m/S 763 mmHg 61%
    19:00 +27°C° 0 mm 5 m/S 763 mmHg 64%
    20:00 +26°C° 0 mm 5 m/S 763 mmHg 64%
    21:00 +26°C° 0 mm 4 m/S 764 mmHg 63%
    22:00 +26°C° 0 mm 4 m/S 764 mmHg 62%
    23:00 +25°C° 0 mm 4 m/S 764 mmHg 62%

    Morgen, 21 Juli, Sonntag

    Zeit Temperatur Niederschläge Wind Luftdruck Luftfeuchtigkeit
    00:00 +25°C° 0 mm 4 m/S 764 mmHg 63%
    01:00 +25°C° 0 mm 4 m/S 764 mmHg 63%
    02:00 +25°C° 0 mm 5 m/S 763 mmHg 63%
    03:00 +23°C° 0 mm 5 m/S 763 mmHg 64%
    04:00 +23°C° 0 mm 5 m/S 763 mmHg 64%
    05:00 +25°C° 0 mm 5 m/S 763 mmHg 62%
    06:00 +27°C° 0 mm 5 m/S 763 mmHg 59%
    07:00 +28°C° 0 mm 5 m/S 763 mmHg 57%
    08:00 +29°C° 0 mm 5 m/S 764 mmHg 53%
    09:00 +32°C° 0 mm 5 m/S 764 mmHg 48%
    10:00 +33°C° 0 mm 5 m/S 764 mmHg 44%
    11:00 +33°C° 0 mm 5 m/S 764 mmHg 45%
    12:00 +33°C° 0 mm 5 m/S 764 mmHg 45%
    13:00 +33°C° 0 mm 6 m/S 763 mmHg 46%
    14:00 +33°C° 0 mm 6 m/S 763 mmHg 47%
    15:00 +32°C° 0 mm 6 m/S 763 mmHg 49%
    16:00 +32°C° 0 mm 6 m/S 763 mmHg 50%
    17:00 +30°C° 0 mm 6 m/S 763 mmHg 54%
    18:00 +28°C° 0 mm 6 m/S 763 mmHg 58%
    19:00 +27°C° 0 mm 5 m/S 763 mmHg 62%
    20:00 +27°C° 0 mm 5 m/S 763 mmHg 63%
    21:00 +26°C° 0 mm 5 m/S 764 mmHg 64%
    22:00 +26°C° 0 mm 5 m/S 764 mmHg 64%
    23:00 +26°C° 0 mm 5 m/S 764 mmHg 64%

    übermorgen, 22 Juli, Montag

    Zeit Temperatur Niederschläge Wind Luftdruck Luftfeuchtigkeit
    00:00 +26°C° 0 mm 5 m/S 763 mmHg 65%
    01:00 +26°C° 0 mm 5 m/S 763 mmHg 65%
    02:00 +25°C° 0 mm 5 m/S 763 mmHg 65%
    03:00 +25°C° 0 mm 5 m/S 763 mmHg 64%
    04:00 +25°C° 0 mm 5 m/S 763 mmHg 64%
    05:00 +27°C° 0 mm 5 m/S 763 mmHg 61%
    06:00 +28°C° 0 mm 5 m/S 763 mmHg 59%
    07:00 +29°C° 0 mm 5 m/S 763 mmHg 56%
    08:00 +30°C° 0 mm 5 m/S 763 mmHg 53%
    09:00 +33°C° 0 mm 5 m/S 763 mmHg 49%
    10:00 +34°C° 0 mm 5 m/S 763 mmHg 46%
    11:00 +34°C° 0 mm 6 m/S 763 mmHg 45%
    12:00 +35°C° 0 mm 6 m/S 762 mmHg 44%
    13:00 +35°C° 0 mm 7 m/S 762 mmHg 43%
    14:00 +34°C° 0 mm 6 m/S 762 mmHg 47%
    15:00 +34°C° 0 mm 6 m/S 762 mmHg 50%
    16:00 +33°C° 0 mm 6 m/S 761 mmHg 53%
    17:00 +32°C° 0 mm 6 m/S 761 mmHg 58%
    18:00 +29°C° 0 mm 6 m/S 761 mmHg 62%
    19:00 +28°C° 0 mm 6 m/S 761 mmHg 66%
    20:00 +28°C° 0 mm 5 m/S 761 mmHg 66%
    21:00 +27°C° 0 mm 5 m/S 761 mmHg 67%
    22:00 +27°C° 0 mm 5 m/S 762 mmHg 67%
    23:00 +27°C° 0 mm 5 m/S 761 mmHg 67%

    23 Juli, Dienstag

    Zeit Temperatur Niederschläge Wind Luftdruck Luftfeuchtigkeit
    00:00 +27°C° 0 mm 5 m/S 761 mmHg 67%
    01:00 +26°C° 0 mm 5 m/S 761 mmHg 68%
    02:00 +26°C° 0 mm 5 m/S 761 mmHg 67%
    03:00 +26°C° 0 mm 5 m/S 760 mmHg 66%
    04:00 +26°C° 0 mm 5 m/S 760 mmHg 65%
    05:00 +28°C° 0 mm 4 m/S 760 mmHg 61%
    06:00 +29°C° 0 mm 4 m/S 760 mmHg 56%
    07:00 +30°C° 0 mm 4 m/S 760 mmHg 52%
    08:00 +33°C° 0 mm 4 m/S 760 mmHg 48%
    09:00 +34°C° 0 mm 5 m/S 760 mmHg 44%
    10:00 +35°C° 0 mm 5 m/S 760 mmHg 40%
    11:00 +35°C° 0 mm 6 m/S 760 mmHg 42%
    12:00 +35°C° 0 mm 7 m/S 760 mmHg 43%
    13:00 +35°C° 0 mm 8 m/S 760 mmHg 44%
    14:00 +34°C° 0 mm 8 m/S 759 mmHg 46%
    15:00 +33°C° 0 mm 8 m/S 759 mmHg 47%
    16:00 +33°C° 0 mm 8 m/S 759 mmHg 48%
    17:00 +30°C° 0 mm 7 m/S 759 mmHg 53%
    18:00 +29°C° 0 mm 6 m/S 759 mmHg 58%
    19:00 +27°C° 0 mm 6 m/S 759 mmHg 63%
    20:00 +27°C° 0 mm 6 m/S 759 mmHg 63%
    21:00 +27°C° 0 mm 5 m/S 759 mmHg 62%
    22:00 +27°C° 0 mm 5 m/S 759 mmHg 62%
    23:00 +27°C° 0 mm 5 m/S 759 mmHg 60%

    24 Juli, Mittwoch

    Zeit Temperatur Niederschläge Wind Luftdruck Luftfeuchtigkeit
    00:00 +27°C° 0 mm 4 m/S 759 mmHg 58%
    01:00 +27°C° 0 mm 4 m/S 759 mmHg 55%
    02:00 +26°C° 0 mm 4 m/S 759 mmHg 55%
    03:00 +26°C° 0 mm 4 m/S 759 mmHg 54%
    04:00 +26°C° 0 mm 4 m/S 758 mmHg 53%
    05:00 +27°C° 0 mm 4 m/S 759 mmHg 51%
    06:00 +28°C° 0 mm 4 m/S 759 mmHg 50%
    07:00 +29°C° 0 mm 3 m/S 759 mmHg 48%
    08:00 +31°C° 0 mm 3 m/S 759 mmHg 46%
    09:00 +33°C° 0 mm 3 m/S 760 mmHg 43%
    10:00 +34°C° 0 mm 3 m/S 760 mmHg 40%
    11:00 +34°C° 0 mm 3 m/S 760 mmHg 42%
    12:00 +34°C° 0 mm 4 m/S 760 mmHg 43%
    13:00 +34°C° 0 mm 4 m/S 760 mmHg 45%
    14:00 +33°C° 0 mm 5 m/S 760 mmHg 46%
    15:00 +33°C° 0 mm 5 m/S 759 mmHg 47%
    16:00 +33°C° 0 mm 6 m/S 759 mmHg 48%
    17:00 +30°C° 0 mm 6 m/S 760 mmHg 54%
    18:00 +29°C° 0 mm 6 m/S 760 mmHg 60%
    19:00 +27°C° 0 mm 5 m/S 760 mmHg 65%
    20:00 +27°C° 0 mm 5 m/S 760 mmHg 67%
    21:00 +26°C° 0 mm 4 m/S 761 mmHg 70%
    22:00 +26°C° 0 mm 4 m/S 761 mmHg 72%
    23:00 +26°C° 0 mm 3 m/S 761 mmHg 67%

    25 Juli, Donnerstag

    Zeit Temperatur Niederschläge Wind Luftdruck Luftfeuchtigkeit
    00:00 +26°C° 0 mm 3 m/S 761 mmHg 62%
    01:00 +26°C° 0 mm 2 m/S 761 mmHg 58%
    02:00 +26°C° 0 mm 2 m/S 761 mmHg 57%
    03:00 +26°C° 0 mm 2 m/S 761 mmHg 57%
    04:00 +26°C° 0 mm 2 m/S 761 mmHg 57%
    05:00 +27°C° 0 mm 2 m/S 761 mmHg 55%
    06:00 +28°C° 0 mm 3 m/S 761 mmHg 53%
    07:00 +29°C° 0 mm 3 m/S 762 mmHg 50%
    08:00 +30°C° 0 mm 3 m/S 762 mmHg 47%
    09:00 +31°C° 0 mm 3 m/S 762 mmHg 44%
    10:00 +33°C° 0 mm 3 m/S 762 mmHg 41%
    11:00 +33°C° 0 mm 3 m/S 762 mmHg 42%
    12:00 +32°C° 0 mm 2 m/S 762 mmHg 44%
    13:00 +32°C° 0 mm 2 m/S 761 mmHg 46%
    14:00 +32°C° 0 mm 2 m/S 761 mmHg 48%
    15:00 +31°C° 0 mm 2 m/S 761 mmHg 51%
    16:00 +31°C° 0 mm 2 m/S 761 mmHg 53%
    17:00 +30°C° 0 mm 3 m/S 761 mmHg 56%
    18:00 +29°C° 0 mm 4 m/S 761 mmHg 59%
    19:00 +28°C° 0 mm 4 m/S 761 mmHg 62%
    20:00 +27°C° 0 mm 4 m/S 761 mmHg 62%
    21:00 +27°C° 0 mm 4 m/S 761 mmHg 62%
    22:00 +26°C° 0 mm 4 m/S 761 mmHg 62%
    23:00 +26°C° 0 mm 4 m/S 761 mmHg 61%
    Mehr zeigen